www.pogodaiklimat.ru

Погода и климат >> Архив погоды >> Россия >> Якутия >> Усть-Мома


АРХИВ ПОГОДЫ в Усть-Моме

Время (UTC), дата Ветер
(напр.,м/с)
 
Видим.   Явления Облачность Т
(С)
Тd
(С)
f
(%)
Тe
(С)
Тes
(С)
Комфортность P
(гПа)
Po
(гПа)
Тmin
(С)
Tmax
(С)
R
(мм)
R24
(мм)
S
(см)
21 9.06 СЗ 1 50 км 6/0
[Cs]
+12.5 +2.7 51 +13 +17 1011.6 988.2 +4.0
00 10.06 ЮЗ 2 50 км 8/0
[Ci fib]
+22.1 +5.3 33 +22 +31 комфорт 1009.1 986.6
03 10.06 З 4 50 км 8/3 1500 м
[Sc diur, vesp Ci fib]
+25.2 -1.0 18 +23 +28 комфорт 1007.3 985.0
06 10.06 З 1 50 км 10/4 1500 м
[Sc diur, vesp Ci fib]
+26.5 +2.7 21 +25 +29 комфорт 1005.8 983.6
09 10.06 СЗ 2 50 км 10/0
[Ci fib]
+26.0 -4.6 13 +23 +25 комфорт 1005.1 982.8 +26.7
12 10.06 ЮВ 1 50 км 6/3 1500 м
[Sc Ci fib]
+19.0 +10.1 56 +21 +21 комфорт 1005.4 982.7
15 10.06 СЗ 1 50 км 4/1 1500 м
[Sc Ci fib]
+10.2 +3.9 65 +10 +10 1006.7 983.2
18 10.06 СЗ 1 50 км 1/1 1500 м
[Sc]
+9.4 +3.4 66 +9 +10 1007.4 983.9
21 10.06 СЗ 1 50 км 1/1 1500 м
[Sc]
+16.0 +4.0 45 +17 +21 1006.6 983.6 +6.7
00 11.06 ЮВ 5 50 км 4/3 1500 м
[Cu hum Ci fib]
+24.6 +3.1 25 +24 +27 комфорт 1004.5 982.3
03 11.06 ЮЗ 3 50 км 4/3 1500 м
[Cu med, cong Ci fib]
+26.3 +4.0 24 +25 +32 комфорт 1002.8 980.7
06 11.06 З 4 50 км гроза без осадков 9/8 1000 м
[Cb cap Ci fib]
+24.0 +3.6 26 +23 +24 комфорт 1003.1 980.9
09 11.06 СЗ 2 50 км {гроза} 8/6 1500 м
[Cb cap Ci fib]
+22.6 +4.0 30 +23 +23 комфорт 1004.1 981.7 +29.0
12 11.06 ЮВ 1 50 км 10/3 1500 м
[Sc Cs]
+17.6 +8.7 56 +19 +19 1004.3 981.6
15 11.06 Ю 1 50 км 3/3 1500 м
[Sc]
+9.5 +6.5 82 +9 +9 1005.5 982.2
18 11.06 В 1 50 км 4/3 1500 м
[Sc Ci fib]
+8.8 +4.8 76 +8 +9 1006.3 982.8
21 11.06 В 1 50 км ясно +15.2 +6.4 56 +16 +20 1005.8 982.7 +8.7
00 12.06 ЮВ 2 50 км 3/3 1500 м
[Cu hum]
+23.2 +6.2 33 +24 +30 комфорт 1003.9 981.6
03 12.06 ЮЗ 1 50 км 3/3 1500 м
[Cu med, cong]
+25.3 +6.2 29 +25 +35 комфорт 1002.3 980.1
06 12.06 З 2 50 км 4/4 1500 м
[Cb cap]
+25.4 +5.2 27 +25 +29 комфорт 1002.1 979.9
09 12.06 Ю 1 50 км 4/3 1500 м
[Cu med, cong Ci ing]
+24.8 +5.4 29 +24 +26 комфорт 1002.0 979.8 +26.0
12 12.06 штиль 0 50 км 8/3 1500 м
[Cb cap Ci fib]
+21.5 +8.2 42 +23 +23 комфорт 1002.7 980.3
15 12.06 штиль 0 50 км 3/0
[Ci fib]
+11.3 +6.9 74 +11 +11 1004.4 981.1
18 12.06 штиль 0 50 км 3/0
[Ci fib]
+11.0 +7.7 80 +10 +11 1005.4 982.1
21 12.06 штиль 0 50 км 1/0
[Ci fib]
+17.1 +8.1 55 +17 +22 1005.6 982.7 +7.8
00 13.06 ЮЗ 2 50 км 1/1 1500 м
[Cu med, cong]
+24.5 +6.3 31 +24 +33 комфорт 1004.4 982.2
03 13.06 50 км н/о +27.0 +4.3 23 +26 +35 жарко 1003.1 981.1
06 13.06 50 км н/о +28.2 +1.4 18 +26 +31 жарко 1001.9 980.0
09 13.06 СЗ 2 50 км 6/3 1500 м
[Cu med, cong Ci fib]
+27.6 +2.8 20 +26 +27 жарко 1002.2 980.2 +29.0
12 13.06 Ю 3 50 км 8/6 1500 м
[Cb cap Ci fib]
+23.4 +5.7 32 +24 +24 комфорт 1003.9 981.6
15 13.06 В 1 50 км 8/8 1500 м
[Cb cap Ci fib]
+16.2 +7.4 56 +17 +17 1005.6 982.6
18 13.06 штиль 0 50 км 10/5 1500 м
[Cb cap Ac cuf Cs]
+15.0 +9.2 68 +15 +15 1007.0 983.9
21 13.06 штиль 0 50 км 9/4 1500 м
[Cu Sc Ci ing]
+17.7 +9.1 57 +18 +20 1007.7 984.9 +14.0
00 14.06 З 2 50 км 10/6 1500 м
[Sc Cs]
+23.6 +12.0 48 +25 +28 комфорт 1007.3 985.0
03 14.06 С 5 50 км 8/4 1500 м
[Cu med, cong Ci fib]
+26.2 +5.5 27 +26 +29 жарко 1006.3 984.3
06 14.06 СЗ 3 50 км 10/8 1000 м
[Cb cap Ac und]
+24.1 +3.1 25 +23 +24 комфорт 1007.0 984.7
09 14.06 ЮВ 1 50 км в посл. час ливневой дождь 10/8 1000 м
[Cb cap Ac trans Ci fib]
+18.6 +11.3 62 +20 +21 1010.4 987.5 +27.0 0.8
12 14.06 штиль 0 50 км сильн. ливневой дождь 10/6 1500 м
[Cb cap Ac trans Ci fib]
+16.4 +10.6 69 +16 +16 1011.0 987.9
15 14.06 штиль 0 50 км 10/5 1500 м
[Sc Ac trans Ci fib]
+13.2 +10.9 86 +13 +13 1011.6 988.4
18 14.06 штиль 0 50 км 10/6 1500 м
[Sc Ac trans Ci fib]
+12.2 +9.9 86 +12 +12 1012.6 989.3
21 14.06 штиль 0 50 км 10/3 1500 м
[Sc Ac trans Ci fib]
+12.9 +10.0 83 +12 +14 1013.4 990.1 +12.2
00 15.06 В 1 50 км 9/4 1500 м
[Cu Sc Ac trans Ci fib]
+18.9 +9.7 55 +21 +25 комфорт 1012.8 989.9
03 15.06 Ю 3 50 км 6/4 1500 м
[Cb cap Ci fib]
+23.5 +8.1 37 +24 +30 комфорт 1010.6 988.1
06 15.06 СВ 4 50 км гроза без осадков 9/6 1000 м
[Cb cap Ci fib]
+24.2 +6.4 32 +24 +26 комфорт 1009.5 987.2
09 15.06 ЮВ 5
{10}
50 км {гроза} 8/4 1500 м
[Cb cap Ci fib]
+21.0 +8.0 43 +22 +23 комфорт 1011.4 988.6 +25.3
12 15.06 Ю 2 50 км {гроза} 10/4 1500 м
[Sc Cs]
+16.2 +10.8 70 +16 +16 1012.7 989.6
15 15.06 СЗ 1 50 км 10/3 1500 м
[Sc Cs]
+11.2 +8.8 85 +11 +11 1013.2 989.7
18 15.06 штиль 0 50 км 8/0
[Ci fib]
+9.5 +6.7 83 +9 +9 1014.3 990.7
21 15.06 ЮВ 1 50 км 8/0
[Ci fib]
+15.4 +8.3 63 +16 +20 1013.9 990.8 +9.4
00 16.06 Ю 3 50 км 8/1 1500 м
[Cu hum Ci fib]
+23.0 +7.3 36 +24 +30 комфорт 1012.3 989.7
03 16.06 Ю 2 50 км 6/4 1500 м
[Cu med, cong Ci fib]
+25.5 +6.9 30 +25 +32 комфорт 1010.7 988.4
06 16.06 Ю 2 50 км 6/4 1500 м
[Cu med, cong Ci fib]
+26.6 +5.2 25 +26 +30 жарко 1009.3 987.2
09 16.06 З 1 50 км 8/4 1500 м
[Cb cap Ci fib]
+25.4 +6.1 29 +25 +26 комфорт 1009.0 986.8 +26.9
12 16.06 штиль 0 50 км 8/3 1500 м
[Cb cap Ci fib]
+19.8 +10.2 54 +21 +21 комфорт 1009.4 986.7
15 16.06 штиль 0 50 км 4/3 1500 м
[Sc Ci fib]
+12.9 +9.6 80 +12 +12 1010.2 987.0

 

Местоположение метеостанции Усть-Мома (Якутия, Россия): широта 66.45 долгота 143.20 высота над уровнем моря 196 м.

В архиве по умолчанию представлена погода в Усть-Моме за последнюю неделю. Архивные данные за месяц целиком и за предыдущие месяцы, начиная с января 2011 года, Вы можете получить, выбрав интересующий диапазон дат из раскрывающегося списка и нажав кнопку "Ввод!".


*Определитесь, кто Вы:
робот инопланетянин человек

Внимание! Время в таблицах - всемирное. Для получения местного времени необходимо прибавить поправку, которая равна 11 ч.

Смотрите также архив погоды в соседних городах и на ближайших метеорологических станциях:

Погода в Усть-Нере (Якутия, Россия) (214 км)
Погода в Белой Горе (Якутия, Россия) (266 км)
Погода в Юртах (Якутия, Россия) (275 км)
Погода в Усть-Чарках (Якутия, Россия) (294 км)
Погода в Делянкире (Якутия, Россия) (312 км)
Погода в Агаякане (Якутия, Россия) (354 км)
Погода в Депутатском (Якутия, Россия) (355 км)
Погода в Оймяконе (Якутия, Россия) (356 км)
Погода в Зырянке (Якутия, Россия) (356 км)
Погода в Иэме (Якутия, Россия) (360 км)

Пояснения к столбцам:

Ветер - указаны скорость ветра в м/с - средняя за 10 мин, порывы в срок и между сроками (в фигурных скобках) и направление, откуда дует ветер: С - северный, СВ - северо-восточный, В - восточный, ЮВ - юго-восточный, Ю - южный, ЮЗ - юго-западный, З - западный, СЗ - северо-западный.
Видимость - горизонтальная дальность видимости в метрах или километрах. При видимости от 1 до 10 км при отсутствии осадков обычно наблюдается дымка, при ухудшении видимости до 1 км и менее - туман. В сухую погоду видимость может ухудшаться дымом, пылью или мглою.
Явления - указаны атмосферные явления, наблюдавшиеся в срок или в последний час перед сроком; фигурными скобками обозначены явления, наблюдавшиеся между сроками (за 1-3 часа до срока); квадратными скобками обозначены град или гололедные отложения с указанием их диаметра в мм.
Облачность - указаны через наклонную черту общая и нижняя облачность в баллах и высота нижней границы облаков в метрах; квадратными скобками обозначены формы облаков: Ci - перистые, Cs - перисто-слоистые, Cc - перисто-кучевые, Ac - высококучевые, As - высокослоистые, Sc - слоисто-кучевые, Ns - слоисто-дождевые, Cu - кучевые, Cb - кучево-дождевые. Подробнее классификацию облаков см. в Атласе облаков (PDF).
T - Температура воздуха - температура, измеренная на высоте 2 м над землей.
Td - Температура точки росы - температура, при понижении до которой содержащийся в воздухе водяной пар достигнет насыщения.
f - Относительная влажность воздуха - влажноcть воздуха, измеренная на высоте 2 м над землей.
Te - Эффективная температура - температура, которую ощущает одетый по сезону человек в тени. Характеристика душности погоды. При расчете учитывается влияние влажности воздуха и скорости ветра на теплоощущения человека.
Tes - Эффективная температура на солнце - температура, которую ощущает человек, с поправкой на солнечный нагрев. Характеристика знойности погоды. Зависит от высоты солнца над горизонтом, облачности и скорости ветра. Ночью, в пасмурную погоду, а также при ветре 12 м/с и более поправка равна нулю.
P - Атмосферное давление - приведенное к уровню моря атмосферное давление.
Po - Атмосферное давление - измеренное на уровне метеостанции атмосферное давление.
Tmin - Минимальная температура - минимум температуры воздуха на высоте 2 м над землей.
Tmax - Максимальная температура - максимум температуры воздуха на высоте 2 м над землей.
R - Количество осадков - Количество выпавших осадков за период времени, мм. При наведении курсора мыши на число - период времени, за который выпало указанное количество осадков.
R24 - Количество осадков - Количество выпавших осадков за 24 часа, мм.
S - Снежный покров - Высота снежного покрова, см. При наведении курсора мыши на число - состояние снежного покрова и степень покрытия местности в баллах.